Find Starlink 31691

NORAD ID: 59856 Int'l Des: 2024-097 Owner: SPXS Country: US Constellation: starlink operational
LEOCIRCULAR

現在のビュー

3D地球を読み込み中...

About Starlink 31691

Starlink 31691 (NORAD 59856) is a starlink constellation satellite (v2 mini) launched May 23, 2024 by SPXS of US. It operates in LEO, CIRCULAR orbit with a mass of 730.00 kg.

次回通過

Passes for default location (London). Set your location on the main map for personalized predictions.

高度履歴

Loading altitude history...

軌道要素

1 59856U 24097X 26265.64749925 -.00001381 00000-0 -40672-4 0 9990
2 59856 43.0025 241.6328 0000636 287.6478 72.4304 15.27575147132046
Epoch: Sep 22, 2026 • Age: 17 hours

現在のステータス

高度 495.1 km
遠地点 / 近地点 N/A
速度 7.62 km/s
衛星直下点 -40.90°S, 2.07°W
打ち上げ日 May 23, 2024
運用期間 2.3 years
タイプ internet

技術仕様

分類 Payload
質量 730.00 kg
乾燥質量 700.00 kg
長さ 0.30 m
スパン 29.00 m
形状 ? Box + pan
製造者 SPXS
バスタイプ Starlink V2M
フェーズステータス In Orbit
所有者/国 SPXS/US

Most Searched